This is the latest recevied weather packets stored in our database for station/object N9DMT-13. If no packets are shown the sender has not sent any weather packets the latest 10 day(s).
| Time | Temp. | Humidity | Pressure | Rain* | Wind** | Luminosity | Snow |
|---|---|---|---|---|---|---|---|
| 1777828500 | 18.89° C | 45% | 974.5 hPa | 0 mm | - | - | - |
| 1777828199 | 18.89° C | 42% | 974.7 hPa | 0 mm | - | - | - |
| 1777827899 | 18.89° C | 41% | 974.7 hPa | 0 mm | - | - | - |
| 1777827598 | 19.44° C | 43% | 974.6 hPa | 0 mm | - | - | - |
| 1777827297 | 18.89° C | 44% | 974.7 hPa | 0 mm | - | - | - |
| 1777826996 | 18.89° C | 44% | 974.8 hPa | 0 mm | - | - | - |
| 1777826695 | 18.89° C | 43% | 974.6 hPa | 0 mm | - | - | - |
| 1777826395 | 18.89° C | 45% | 974.8 hPa | 0 mm | - | - | - |
| 1777826094 | 18.33° C | 44% | 974.7 hPa | 0 mm | - | - | - |
| 1777825793 | 18.89° C | 45% | 974.9 hPa | 0 mm | - | - | - |
| 1777825492 | 18.89° C | 44% | 974.9 hPa | 0 mm | - | - | - |
| 1777825191 | 18.33° C | 46% | 974.9 hPa | 0 mm | - | - | - |
| 1777824890 | 18.33° C | 45% | 975.2 hPa | 0 mm | - | - | - |
| 1777824590 | 17.78° C | 45% | 975.1 hPa | 0 mm | - | - | - |
| 1777824289 | 17.22° C | 45% | 975.3 hPa | 0 mm | - | - | - |
| 1777823988 | 17.22° C | 47% | 975.1 hPa | 0 mm | - | - | - |
| 1777823687 | 17.22° C | 45% | 975.3 hPa | 0 mm | - | - | - |
| 1777823386 | 17.22° C | 47% | 975.1 hPa | 0 mm | - | - | - |
| 1777823086 | 16.67° C | 49% | 975.4 hPa | 0 mm | - | - | - |
| 1777822785 | 16.11° C | 49% | 975.4 hPa | 0 mm | - | - | - |
| 1777822484 | 15.56° C | 48% | 975.4 hPa | 0 mm | - | - | - |
| 1777822184 | 16.11° C | 46% | 975.6 hPa | 0 mm | - | - | - |
| 1777821883 | 16.67° C | 46% | 975.7 hPa | 0 mm | - | - | - |
| 1777821593 | 16.67° C | 46% | 975.5 hPa | 0 mm | - | - | - |
| 1777821281 | 16.67° C | 45% | 975.7 hPa | 0 mm | - | - | - |
* Rain latest hour (hover to see other rain measurements)
** Current wind speed in m/s (hover to see current wind gust speed)